SCP
0 0 0 0 0 0 0 0 0 0 0 0 0 0 0 0 0 0 0 0 0 0 0 0 0 0 0 0 0 0 0 0 0 0 0 0 0 0 0 0 0 0 0
0 0 0 0 0 0 0 0 0 0 0 0 0 0 0 0 0 0 0 0 0 0 0 0 0 0 0 0 0 0 0 0 0 0 0 0 0 0 0 0 0 0 0
0 0 0 0 0 0 0 0 0 0 0 0 0 0 0 0 0 0 0 0 0 0 0 0 0 0 0 0 0 0 0 0 0 0 0 0 0 0 0 0 0 0 0
0 0 0 0 0 0 0 0 0 0 0 0 0 0 0 0 0 0 0 0 0 0 0 0 0 0 0 0 0 0 0 0 0 0 0 0 0 0 0 0 0 0 0
-0 -0 -0 0 0 0 0 0 0 0 0 0 0 0 0 0 0 0 0 0 0 0 0 0 0 0 0 0 0 0 0 0 0 0 0 0 0 0 0 0 0 0 0
-0 0 -0 -0 -0 0 0 0 0 0 0 0 0 0 0 0 0 0 0 0 0 0 0 0 0 0 0 0 0 0 0 0 0 0 0 0 0 0 0 0 0 0 0
-0 -0 0 0 -0 -0 0 0 0 0 0 0 0 0 0 0 0 0 0 0 0 0 0 0 0 0 0 0 0 0 0 0 0 0 0 0 0 0 0 0 0 0 0
-0 -0 0 0 0 -0 0 0 0 0 0 0 0 0 0 0 0 0 0 0 0 0 0 0 0 0 0 0 0 0 0 0 0 0 0 0 0 0 0 0 0 0 0
-0 0 0 0 0 0 0 0 0 0 0 0 0 0 0 0 0 0 0 0 0 0 0 0 0 0 0 0 0 0 0 0 0 0 0 0 0 0 0 0 0 0 0
-0 0 0 0 0 0 0 0 0 0 0 0 0 0 0 0 0 0 0 0 0 0 0 0 0 0 0 0 0 0 0 0 0 0 0 0 0 0 0 0 0 0 0
0 0 0 0 0 0 0 0 0 0 0 0 0 0 0 0 0 0 0 0 0 0 0 0 0 0 0 0 0 0 0 0 0 0 0 0 0 0 0 0 0 0 0
-0 0 0 0 0 0 0 0 0 0 0 0 0 0 0 0 0 0 0 0 0 0 0 0 0 0 0 0 0 0 0 0 0 0 0 0 0 0 0 0 0 0 0
-0 0 0 0 0 0 0 0 0 0 0 0 0 0 0 0 0 0 0 0 0 0 0 0 0 0 0 0 0 0 0 0 0 0 0 0 0 0 0 0 0 0 0
-0 -0 0 0 -0 0 0 0 0 0 0 0 0 0 0 0 0 0 0 0 0 0 0 0 0 0 0 0 0 0 0 0 0 0 0 0 0 0 0 0 0 0 0
-0 -0 -0 -0 0 -0 0 0 0 0 0 0 0 0 0 0 0 0 0 0 0 0 0 0 0 0 0 0 0 0 0 0 0 0 0 0 0 0 0 0 0 0 0
-0 -0 -0 -0 -0 -0 -0 0 0 0 0 0 0 0 0 0 0 0 0 0 0 0 0 0 0 0 0 0 0 0 0 0 0 0 0 0 0 0 0 0 0 0 0
-0 -0 -0 -0 -0 -0 -0 -0 0 0 0 0 0 0 0 0 0 0 0 0 0 0 0 0 0 0 0 0 0 0 0 0 0 0 0 0 0 0 0 0 0 0 0
-0 0 -0 -0 -0 0 0 0 0 0 0 0 0 0 0 0 0 0 0 0 0 0 0 0 0 0 0 0 0 0 0 0 0 0 0 0 0 0 0 0 0 0 0
-0 -0 0 0 0 0 0 0 0 0 0 0 0 0 0 0 0 0 0 0 0 0 0 0 0 0 0 0 0 0 0 0 0 0 0 0 0 0 0 0 0 0 0
0 0 0 0 0 0 0 0 0 0 0 0 0 0 0 0 0 0 0 0 0 0 0 0 0 0 0 0 0 0 0 0 0 0 0 0 0 0 0 0 0 0 0
0 0 0 0 0 0 0 0 0 0 0 0 0 0 0 0 0 0 0 0 0 0 0 0 0 0 0 0 0 0 0 0 0 0 0 0 0 0 0 0 0 0 0
0 0 0 0 0 0 0 0 0 0 0 0 0 0 0 0 0 0 0 0 0 0 0 0 0 0 0 0 0 0 0 0 0 0 0 0 0 0 0 0 0 0 0
0 0 0 0 0 0 0 0 0 0 0 0 0 0 0 0 0 0 0 0 0 0 0 0 0 0 0 0 0 0 0 0 0 0 0 0 0 0 0 0 0 0 0
0 0 0 0 0 0 0 0 0 0 0 0 0 0 0 0 0 0 0 0 0 0 0 0 0 0 0 0 0 0 0 0 0 0 0 0 0 0 0 0 0 0 0
0 0 0 0 0 0 0 0 0 0 0 0 0 0 0 0 0 0 0 0 0 0 0 0 0 0 0 0 0 0 0 0 0 0 0 0 0 0 0 0 0 0 0
0 0 0 0 0 0 0 0 0 0 0 0 0 0 0 0 0 0 0 0 0 0 0 0 0 0 0 0 0 0 0 0 0 0 0 0 0 0 0 0 0 0 0
Wind_Speed_500mb
46 35 35 47 61 71 80 86 88 87 98 96 99 91 78 67 63 55 54 48 43 38 36 32 29 26 23 21 18 15 14 14 19 19 21 24 24 26 27 28 29 31 33
54 43 32 37 48 60 68 76 82 78 89 90 88 80 79 65 56 57 54 48 42 38 37 32 28 26 24 20 17 14 12 13 15 19 21 23 23 24 27 31 32 33 34
52 49 40 29 37 47 57 65 71 75 74 85 81 73 68 60 56 56 53 47 43 40 35 30 27 26 24 21 17 13 9 9 13 20 26 26 25 25 28 29 31 33 41
52 45 46 39 29 41 48 55 59 67 75 79 83 73 62 54 62 56 50 49 44 38 34 30 27 24 21 18 16 13 11 9 12 17 22 27 26 30 34 35 36 44 50
73 48 39 42 38 28 36 47 55 61 70 75 66 58 58 53 57 57 56 51 43 38 34 29 24 20 18 17 18 17 15 12 14 18 23 27 28 33 37 43 50 55 58
80 55 43 35 33 31 27 31 36 50 59 56 56 55 57 62 60 56 52 48 41 35 32 28 24 19 16 14 14 16 17 17 18 19 24 28 28 34 40 46 54 59 61
71 70 43 38 30 25 22 22 31 38 40 44 48 50 60 59 56 53 50 45 39 36 32 27 23 18 15 13 10 13 18 21 18 18 21 25 29 34 41 47 52 54 46
58 65 59 37 33 26 23 26 35 35 45 49 55 56 58 56 56 53 49 45 40 35 30 26 22 19 14 10 9 10 15 15 15 15 16 23 26 31 38 45 50 40 35
57 55 60 54 32 32 30 33 40 45 48 50 47 50 54 56 54 52 50 45 40 36 30 28 24 20 14 11 9 11 14 14 17 16 18 21 24 30 37 41 32 32 30
59 59 53 55 42 35 39 37 40 44 45 40 40 53 56 51 53 52 47 42 40 37 36 32 26 21 15 12 12 10 10 14 16 16 16 20 24 28 35 29 23 26 27
60 57 54 50 49 34 41 44 38 39 40 42 49 55 53 55 53 50 47 40 40 39 34 32 30 22 14 17 13 7 9 12 15 16 14 19 22 25 27 17 19 17 20
64 58 52 43 49 42 33 44 49 45 44 49 56 55 57 55 52 51 47 44 39 37 38 32 26 24 21 18 12 10 10 11 13 16 15 17 18 21 18 10 11 12 17
65 58 53 48 39 49 37 33 47 52 54 55 62 64 65 60 57 51 45 42 42 44 36 31 31 25 24 20 17 12 12 11 10 13 15 15 12 15 11 4 6 10 15
59 55 50 50 44 41 47 36 39 54 62 66 69 71 66 61 55 59 54 47 48 45 40 37 32 32 28 25 18 16 11 11 9 11 14 11 9 10 5 3 2 7 12
54 50 48 45 44 38 40 43 39 47 63 68 66 64 63 62 61 54 51 55 53 45 41 40 40 35 34 28 23 16 12 11 11 11 11 9 9 8 4 7 5 3 8
55 56 49 48 44 41 40 45 42 37 47 63 59 65 68 67 60 52 49 49 42 44 49 44 38 39 36 31 24 18 12 12 10 11 12 8 8 8 8 9 7 3 5
53 54 53 48 47 45 42 38 44 43 39 51 65 70 65 64 64 50 47 45 48 51 50 43 44 41 40 32 28 21 15 9 9 10 10 7 7 11 13 10 7 3 5
48 41 45 46 47 48 44 42 38 41 44 46 58 73 71 74 73 52 47 54 56 55 52 49 46 43 38 34 29 24 17 9 6 7 8 6 9 15 14 11 7 2 5
45 39 36 39 41 45 46 44 36 40 44 43 39 52 74 80 66 58 59 63 69 66 58 54 51 47 39 33 29 24 18 13 6 4 5 6 11 18 15 12 6 2 4
39 35 34 36 39 41 43 42 38 35 39 42 44 42 59 78 77 74 72 69 68 63 59 57 52 47 41 36 31 28 22 15 10 7 4 7 12 16 14 12 8 3 3
39 36 33 34 33 39 41 40 37 35 35 41 48 43 44 77 81 79 80 76 71 69 62 59 55 49 43 39 34 31 24 16 12 9 5 8 13 14 13 12 9 4 3
36 35 35 33 34 35 36 35 36 32 32 36 43 44 40 58 81 80 83 76 73 65 59 57 57 50 46 39 34 32 26 19 14 10 8 7 12 11 9 11 10 7 3
32 28 27 26 27 30 31 30 27 30 29 29 40 45 41 52 69 83 82 70 70 67 63 59 54 51 50 44 38 33 25 23 19 14 11 12 14 13 10 10 10 8 5
26 25 22 22 20 19 23 25 20 19 27 24 28 40 41 54 72 87 81 71 67 66 65 58 53 51 49 44 41 34 27 24 22 20 17 16 14 12 12 12 12 12 10
20 18 16 15 14 12 11 14 15 13 9 20 25 33 40 57 69 74 73 69 66 63 62 58 53 49 46 47 43 37 32 28 26 23 23 20 16 14 14 14 14 15 13
18 16 13 11 9 9 10 12 13 10 6 6 15 24 33 42 49 63 65 64 59 57 56 53 50 47 43 42 40 37 34 31 30 29 27 24 20 17 18 17 17 17 17
Wind_Direction_500mb
347 312 286 269 260 253 248 244 244 240 226 223 213 210 210 209 212 215 213 210 209 212 214 215 215 218 220 224 231 235 243 259 280 298 309 318 325 329 331 328 322 317 313
357 340 305 283 268 256 250 243 242 233 232 220 215 210 204 201 214 208 215 207 207 208 210 209 211 214 218 224 224 232 248 265 281 303 319 321 325 329 332 330 329 323 322
352 346 339 297 279 265 254 248 237 236 226 216 210 206 204 193 211 214 213 211 201 201 203 205 208 212 217 217 218 227 247 264 288 304 315 321 328 330 330 330 326 329 330
342 343 336 330 291 268 256 246 239 227 218 210 204 198 202 194 207 206 206 206 198 195 197 198 206 211 215 214 217 226 232 249 280 298 305 318 326 334 338 340 334 337 334
346 333 331 324 325 303 273 253 238 225 212 202 195 192 200 194 208 205 205 199 196 191 193 194 196 202 211 218 223 225 235 253 277 300 312 321 329 336 340 340 334 336 333
346 336 329 323 311 311 291 258 236 219 204 193 187 191 197 202 203 200 199 196 190 190 192 188 191 197 212 220 225 232 244 257 275 297 316 319 328 334 336 338 336 335 336
349 348 326 321 311 293 283 252 210 205 201 196 189 193 205 199 196 194 194 193 189 189 188 189 190 196 210 218 227 231 243 252 268 296 313 318 328 335 335 340 333 334 338
341 343 350 318 304 291 247 222 209 206 206 200 197 203 203 197 194 193 192 191 189 188 188 190 193 199 205 214 236 250 252 249 267 286 298 311 319 328 332 334 332 343 350
337 337 339 347 297 278 259 238 224 222 214 216 210 203 207 199 195 192 194 192 190 190 189 196 199 201 201 223 227 253 256 257 258 271 287 307 317 327 334 338 343 351 3
335 333 330 336 333 273 257 249 231 226 226 215 214 218 209 202 198 196 196 196 193 195 196 198 198 203 210 221 236 246 264 265 247 263 282 299 314 326 336 345 354 3 16
325 327 329 324 335 311 261 248 237 227 221 218 217 209 206 207 205 199 199 200 201 201 202 204 203 201 206 238 244 253 270 273 244 256 273 292 308 329 339 356 5 20 31
316 320 322 316 318 328 286 251 237 222 216 217 215 210 207 210 209 203 200 204 202 207 209 205 206 209 217 233 247 262 271 265 247 248 269 285 308 334 343 6 20 34 36
309 312 316 319 305 314 315 272 247 231 217 220 217 213 211 207 208 205 205 206 208 213 207 206 209 218 221 232 236 252 262 252 244 244 251 271 308 331 341 5 48 43 49
305 306 310 315 314 301 312 299 258 239 230 226 224 218 215 214 209 208 204 205 212 211 207 211 209 217 222 224 230 240 249 244 242 224 238 252 303 311 316 218 113 51 42
305 306 307 308 309 303 289 298 281 251 235 234 237 227 218 210 216 216 210 212 214 212 211 213 212 213 217 217 222 230 235 236 225 208 223 244 284 276 245 206 156 61 38
304 305 306 304 303 301 291 283 288 270 247 236 231 233 228 213 227 219 217 218 215 216 216 214 217 215 212 209 216 217 225 231 218 197 203 240 262 243 211 188 156 108 28
303 300 301 298 296 297 295 280 280 282 264 241 227 225 239 219 220 209 214 215 215 213 213 212 216 214 208 203 209 210 209 212 220 193 187 206 227 219 198 177 150 113 15
306 305 299 296 294 293 289 283 267 269 264 247 232 225 227 222 212 219 212 211 210 211 214 209 211 210 202 199 201 203 192 174 208 197 183 198 206 208 191 177 147 99 23
313 312 303 297 295 292 288 279 263 260 261 263 255 239 226 217 211 216 207 212 211 211 207 205 207 207 201 193 196 197 193 159 148 138 173 200 188 208 187 176 159 90 18
314 312 305 302 301 296 289 280 271 259 252 260 260 248 228 205 204 208 202 209 213 215 209 203 200 198 198 198 197 196 195 156 132 106 156 202 186 202 189 185 169 134 46
320 319 312 308 307 301 295 279 264 259 247 246 255 253 240 212 203 209 203 206 210 211 207 204 201 195 196 196 196 201 190 165 146 122 147 198 190 198 197 188 201 158 99
315 324 323 317 311 309 306 288 262 257 250 244 249 249 242 224 209 211 208 206 209 208 207 207 205 200 199 198 201 205 187 175 169 157 154 182 192 195 195 209 207 214 173
312 316 318 320 314 309 310 306 272 249 250 243 246 247 236 231 225 209 208 208 207 204 205 206 207 203 201 199 201 208 190 186 184 188 184 193 182 172 179 210 224 228 228
314 319 323 327 331 320 318 319 316 271 241 237 244 249 245 227 219 211 200 202 211 205 207 207 207 211 207 205 206 206 199 197 191 196 206 205 199 181 181 191 216 229 238
329 327 329 335 348 354 2 343 334 321 263 229 227 231 231 224 220 209 201 201 204 204 206 206 206 212 215 214 211 207 207 205 205 203 213 214 205 201 202 206 211 231 237
353 349 350 357 4 25 51 63 64 56 59 148 205 207 213 216 216 202 196 195 200 200 203 204 206 209 216 222 220 215 215 213 215 214 215 219 218 222 223 221 225 229 238
Wind_Speed_850mb
46 35 35 47 61 71 80 86 88 87 98 96 99 91 78 67 63 55 54 48 43 38 36 32 29 26 23 21 18 15 14 14 19 19 21 24 24 26 27 28 29 31 33
54 43 32 37 48 60 68 76 82 78 89 90 88 80 79 65 56 57 54 48 42 38 37 32 28 26 24 20 17 14 12 13 15 19 21 23 23 24 27 31 32 33 34
52 49 40 29 37 47 57 65 71 75 74 85 81 73 68 60 56 56 53 47 43 40 35 30 27 26 24 21 17 13 9 9 13 20 26 26 25 25 28 29 31 33 41
52 45 46 39 29 41 48 55 59 67 75 79 83 73 62 54 62 56 50 49 44 38 34 30 27 24 21 18 16 13 11 9 12 17 22 27 26 30 34 35 36 44 50
73 48 39 42 38 28 36 47 55 61 70 75 66 58 58 53 57 57 56 51 43 38 34 29 24 20 18 17 18 17 15 12 14 18 23 27 28 33 37 43 50 55 58
80 55 43 35 33 31 27 31 36 50 59 56 56 55 57 62 60 56 52 48 41 35 32 28 24 19 16 14 14 16 17 17 18 19 24 28 28 34 40 46 54 59 61
71 70 43 38 30 25 22 22 31 38 40 44 48 50 60 59 56 53 50 45 39 36 32 27 23 18 15 13 10 13 18 21 18 18 21 25 29 34 41 47 52 54 46
58 65 59 37 33 26 23 26 35 35 45 49 55 56 58 56 56 53 49 45 40 35 30 26 22 19 14 10 9 10 15 15 15 15 16 23 26 31 38 45 50 40 35
57 55 60 54 32 32 30 33 40 45 48 50 47 50 54 56 54 52 50 45 40 36 30 28 24 20 14 11 9 11 14 14 17 16 18 21 24 30 37 41 32 32 30
59 59 53 55 42 35 39 37 40 44 45 40 40 53 56 51 53 52 47 42 40 37 36 32 26 21 15 12 12 10 10 14 16 16 16 20 24 28 35 29 23 26 27
60 57 54 50 49 34 41 44 38 39 40 42 49 55 53 55 53 50 47 40 40 39 34 32 30 22 14 17 13 7 9 12 15 16 14 19 22 25 27 17 19 17 20
64 58 52 43 49 42 33 44 49 45 44 49 56 55 57 55 52 51 47 44 39 37 38 32 26 24 21 18 12 10 10 11 13 16 15 17 18 21 18 10 11 12 17
65 58 53 48 39 49 37 33 47 52 54 55 62 64 65 60 57 51 45 42 42 44 36 31 31 25 24 20 17 12 12 11 10 13 15 15 12 15 11 4 6 10 15
59 55 50 50 44 41 47 36 39 54 62 66 69 71 66 61 55 59 54 47 48 45 40 37 32 32 28 25 18 16 11 11 9 11 14 11 9 10 5 3 2 7 12
54 50 48 45 44 38 40 43 39 47 63 68 66 64 63 62 61 54 51 55 53 45 41 40 40 35 34 28 23 16 12 11 11 11 11 9 9 8 4 7 5 3 8
55 56 49 48 44 41 40 45 42 37 47 63 59 65 68 67 60 52 49 49 42 44 49 44 38 39 36 31 24 18 12 12 10 11 12 8 8 8 8 9 7 3 5
53 54 53 48 47 45 42 38 44 43 39 51 65 70 65 64 64 50 47 45 48 51 50 43 44 41 40 32 28 21 15 9 9 10 10 7 7 11 13 10 7 3 5
48 41 45 46 47 48 44 42 38 41 44 46 58 73 71 74 73 52 47 54 56 55 52 49 46 43 38 34 29 24 17 9 6 7 8 6 9 15 14 11 7 2 5
45 39 36 39 41 45 46 44 36 40 44 43 39 52 74 80 66 58 59 63 69 66 58 54 51 47 39 33 29 24 18 13 6 4 5 6 11 18 15 12 6 2 4
39 35 34 36 39 41 43 42 38 35 39 42 44 42 59 78 77 74 72 69 68 63 59 57 52 47 41 36 31 28 22 15 10 7 4 7 12 16 14 12 8 3 3
39 36 33 34 33 39 41 40 37 35 35 41 48 43 44 77 81 79 80 76 71 69 62 59 55 49 43 39 34 31 24 16 12 9 5 8 13 14 13 12 9 4 3
36 35 35 33 34 35 36 35 36 32 32 36 43 44 40 58 81 80 83 76 73 65 59 57 57 50 46 39 34 32 26 19 14 10 8 7 12 11 9 11 10 7 3
32 28 27 26 27 30 31 30 27 30 29 29 40 45 41 52 69 83 82 70 70 67 63 59 54 51 50 44 38 33 25 23 19 14 11 12 14 13 10 10 10 8 5
26 25 22 22 20 19 23 25 20 19 27 24 28 40 41 54 72 87 81 71 67 66 65 58 53 51 49 44 41 34 27 24 22 20 17 16 14 12 12 12 12 12 10
20 18 16 15 14 12 11 14 15 13 9 20 25 33 40 57 69 74 73 69 66 63 62 58 53 49 46 47 43 37 32 28 26 23 23 20 16 14 14 14 14 15 13
18 16 13 11 9 9 10 12 13 10 6 6 15 24 33 42 49 63 65 64 59 57 56 53 50 47 43 42 40 37 34 31 30 29 27 24 20 17 18 17 17 17 17
Wind_Direction_850mb
347 312 286 269 260 253 248 244 244 240 226 223 213 210 210 209 212 215 213 210 209 212 214 215 215 218 220 224 231 235 243 259 280 298 309 318 325 329 331 328 322 317 313
357 340 305 283 268 256 250 243 242 233 232 220 215 210 204 201 214 208 215 207 207 208 210 209 211 214 218 224 224 232 248 265 281 303 319 321 325 329 332 330 329 323 322
352 346 339 297 279 265 254 248 237 236 226 216 210 206 204 193 211 214 213 211 201 201 203 205 208 212 217 217 218 227 247 264 288 304 315 321 328 330 330 330 326 329 330
342 343 336 330 291 268 256 246 239 227 218 210 204 198 202 194 207 206 206 206 198 195 197 198 206 211 215 214 217 226 232 249 280 298 305 318 326 334 338 340 334 337 334
346 333 331 324 325 303 273 253 238 225 212 202 195 192 200 194 208 205 205 199 196 191 193 194 196 202 211 218 223 225 235 253 277 300 312 321 329 336 340 340 334 336 333
346 336 329 323 311 311 291 258 236 219 204 193 187 191 197 202 203 200 199 196 190 190 192 188 191 197 212 220 225 232 244 257 275 297 316 319 328 334 336 338 336 335 336
349 348 326 321 311 293 283 252 210 205 201 196 189 193 205 199 196 194 194 193 189 189 188 189 190 196 210 218 227 231 243 252 268 296 313 318 328 335 335 340 333 334 338
341 343 350 318 304 291 247 222 209 206 206 200 197 203 203 197 194 193 192 191 189 188 188 190 193 199 205 214 236 250 252 249 267 286 298 311 319 328 332 334 332 343 350
337 337 339 347 297 278 259 238 224 222 214 216 210 203 207 199 195 192 194 192 190 190 189 196 199 201 201 223 227 253 256 257 258 271 287 307 317 327 334 338 343 351 3
335 333 330 336 333 273 257 249 231 226 226 215 214 218 209 202 198 196 196 196 193 195 196 198 198 203 210 221 236 246 264 265 247 263 282 299 314 326 336 345 354 3 16
325 327 329 324 335 311 261 248 237 227 221 218 217 209 206 207 205 199 199 200 201 201 202 204 203 201 206 238 244 253 270 273 244 256 273 292 308 329 339 356 5 20 31
316 320 322 316 318 328 286 251 237 222 216 217 215 210 207 210 209 203 200 204 202 207 209 205 206 209 217 233 247 262 271 265 247 248 269 285 308 334 343 6 20 34 36
309 312 316 319 305 314 315 272 247 231 217 220 217 213 211 207 208 205 205 206 208 213 207 206 209 218 221 232 236 252 262 252 244 244 251 271 308 331 341 5 48 43 49
305 306 310 315 314 301 312 299 258 239 230 226 224 218 215 214 209 208 204 205 212 211 207 211 209 217 222 224 230 240 249 244 242 224 238 252 303 311 316 218 113 51 42
305 306 307 308 309 303 289 298 281 251 235 234 237 227 218 210 216 216 210 212 214 212 211 213 212 213 217 217 222 230 235 236 225 208 223 244 284 276 245 206 156 61 38
304 305 306 304 303 301 291 283 288 270 247 236 231 233 228 213 227 219 217 218 215 216 216 214 217 215 212 209 216 217 225 231 218 197 203 240 262 243 211 188 156 108 28
303 300 301 298 296 297 295 280 280 282 264 241 227 225 239 219 220 209 214 215 215 213 213 212 216 214 208 203 209 210 209 212 220 193 187 206 227 219 198 177 150 113 15
306 305 299 296 294 293 289 283 267 269 264 247 232 225 227 222 212 219 212 211 210 211 214 209 211 210 202 199 201 203 192 174 208 197 183 198 206 208 191 177 147 99 23
313 312 303 297 295 292 288 279 263 260 261 263 255 239 226 217 211 216 207 212 211 211 207 205 207 207 201 193 196 197 193 159 148 138 173 200 188 208 187 176 159 90 18
314 312 305 302 301 296 289 280 271 259 252 260 260 248 228 205 204 208 202 209 213 215 209 203 200 198 198 198 197 196 195 156 132 106 156 202 186 202 189 185 169 134 46
320 319 312 308 307 301 295 279 264 259 247 246 255 253 240 212 203 209 203 206 210 211 207 204 201 195 196 196 196 201 190 165 146 122 147 198 190 198 197 188 201 158 99
315 324 323 317 311 309 306 288 262 257 250 244 249 249 242 224 209 211 208 206 209 208 207 207 205 200 199 198 201 205 187 175 169 157 154 182 192 195 195 209 207 214 173
312 316 318 320 314 309 310 306 272 249 250 243 246 247 236 231 225 209 208 208 207 204 205 206 207 203 201 199 201 208 190 186 184 188 184 193 182 172 179 210 224 228 228
314 319 323 327 331 320 318 319 316 271 241 237 244 249 245 227 219 211 200 202 211 205 207 207 207 211 207 205 206 206 199 197 191 196 206 205 199 181 181 191 216 229 238
329 327 329 335 348 354 2 343 334 321 263 229 227 231 231 224 220 209 201 201 204 204 206 206 206 212 215 214 211 207 207 205 205 203 213 214 205 201 202 206 211 231 237
353 349 350 357 4 25 51 63 64 56 59 148 205 207 213 216 216 202 196 195 200 200 203 204 206 209 216 222 220 215 215 213 215 214 215 219 218 222 223 221 225 229 238